TimeCST,TemperatureF,Dew PointF,Humidity,Sea Level PressureIn,VisibilityMPH,Wind Direction,Wind SpeedMPH,Gust SpeedMPH,PrecipitationIn,Events,Conditions,WindDirDegrees,DateUTC
12:54 AM,60.1,57.9,93,29.99,7.0,South,4.6,-,N/A,,Overcast,180,2012-12-03 06:54:00
1:54 AM,57.0,55.0,93,29.99,6.0,ESE,3.5,-,N/A,,Mostly Cloudy,120,2012-12-03 07:54:00
2:54 AM,57.9,55.9,93,29.99,6.0,East,5.8,-,N/A,,Mostly Cloudy,80,2012-12-03 08:54:00
3:54 AM,60.1,57.0,90,29.98,8.0,Calm,Calm,-,N/A,,Mostly Cloudy,0,2012-12-03 09:54:00
4:54 AM,61.0,57.9,90,29.96,8.0,South,9.2,-,N/A,,Mostly Cloudy,170,2012-12-03 10:54:00
5:54 AM,61.0,57.9,90,29.96,8.0,SSE,9.2,-,N/A,,Overcast,160,2012-12-03 11:54:00
6:54 AM,62.1,57.9,86,29.96,9.0,South,9.2,-,N/A,,Clear,170,2012-12-03 12:54:00
7:54 AM,63.0,59.0,87,29.95,8.0,SSE,11.5,-,N/A,,Clear,160,2012-12-03 13:54:00
10:54 AM,72.0,60.1,66,29.92,10.0,South,19.6,26.5,N/A,,Scattered Clouds,190,2012-12-03 16:54:00
11:54 AM,73.9,57.9,57,29.88,10.0,South,23.0,31.1,N/A,,Partly Cloudy,190,2012-12-03 17:54:00
12:54 PM,75.0,57.0,53,29.86,10.0,South,25.3,31.1,N/A,,Partly Cloudy,190,2012-12-03 18:54:00
1:54 PM,73.9,55.9,53,29.84,10.0,South,19.6,31.1,N/A,,Scattered Clouds,180,2012-12-03 19:54:00
2:54 PM,73.9,55.0,52,29.84,10.0,South,20.7,27.6,N/A,,Partly Cloudy,180,2012-12-03 20:54:00
3:54 PM,72.0,55.0,55,29.86,10.0,South,16.1,26.5,N/A,,Partly Cloudy,180,2012-12-03 21:54:00
4:54 PM,70.0,55.0,59,29.88,10.0,South,10.4,-,N/A,,Overcast,190,2012-12-03 22:54:00
5:54 PM,70.0,54.0,57,29.89,10.0,South,18.4,-,N/A,,Overcast,190,2012-12-03 23:54:00
6:54 PM,66.9,55.0,66,29.91,10.0,SSE,11.5,-,N/A,,Clear,160,2012-12-04 00:54:00
7:54 PM,64.9,55.9,73,29.92,10.0,South,17.3,-,N/A,,Clear,180,2012-12-04 01:54:00
8:54 PM,64.9,57.0,75,29.91,10.0,South,13.8,-,N/A,,Partly Cloudy,190,2012-12-04 02:54:00
9:54 PM,64.0,55.9,75,29.91,10.0,South,9.2,-,N/A,,Clear,190,2012-12-04 03:54:00
10:54 PM,64.0,55.9,75,29.91,10.0,South,10.4,-,N/A,,Clear,190,2012-12-04 04:54:00
11:54 PM,63.0,55.0,75,29.91,10.0,SSW,9.2,-,N/A,,Scattered Clouds,200,2012-12-04 05:54:00